Meteopurmerend
purmerend
Purmerend - Baaienwijk



My webcam  My webcam


Onweer radar Meer informatie blitzortung!


Regen radar Meer informatie rain snow radar


Bezoek onze andere website:

CandyAppleRed WebdesignWebdesign Purmerend Candy Apple Red

MeteopurmerendBlog

Template documentation
and downloads



We konden geen weer-waarchuwingen ophalen. Ga rechtstreeks naar de Meteoalarm site : www.meteoalarm.eu en controleer daar .

15 daagse weersverwachting Roskilde (DK)

  • Overzicht
  • Per uur
  • 15 dagen
  • Extra
  • Vergelijk
  • Kaarten
  • Dagkaart
  • Meer »
  • Info
  • Statistieken
  • Directe link
    Temp 6h Neerslag Wind  
 04:32     21:59    Daglengte: 17:27 Vandaag
08:00
19°
 
3
14:00
25°
 
4
20:00
23°
 
2
 04:32     21:59    Daglengte: 17:27 Morgen
02:00
17°
 
1
08:00
20°
 
3
14:00
26°
 
5
20:00
21°
 
7
 04:33     21:59    Daglengte: 17:26 Dinsdag 28 Jun
02:00
15°
9.5 mm
5
08:00
16°
6.7 mm
4
14:00
21°
 
4
20:00
20°
 
2
Locatie info
Region: Sjælland
Latitude: 55.6405°N
Longitude: 12.0922°E
41 masl
Postcode: 4000
Temp/Neerslag /Baro Onweer/Dauwpunt
    Temp Baro 1h Neerslag Dauwpunt Wind UV Bewolking  
 04:32     21:59    Daglengte: 17:27 Vandaag
04:00
18°
1013.9 hPa
44%
16.6°
2
Windvlaag: -2.5 m/s
19%
05:00
17°
1013.8 hPa
20%
16.5°
2
Windvlaag: -1.3 m/s
20%
06:00
18°
1014.0 hPa
54%
16.8°
2
Windvlaag: 1.6 m/s
47%
07:00
18°
1014.1 hPa   16.6°
2
Windvlaag: -2.1 m/s
62%
08:00
19°
1014.3 hPa   16.6°
3
Windvlaag: 0.6 m/s
47%
09:00
21°
1014.2 hPa
16%
16.8°
3
Windvlaag: 1.2 m/s
51%
10:00
21°
1014.4 hPa
32%
16.9°
3
Windvlaag: 3.6 m/s
41%
11:00
22°
1014.6 hPa
69%
17.0°
3
Windvlaag: 3.4 m/s
53%
12:00
23°
1014.8 hPa
22%
17.6°
3
Windvlaag: 4.2 m/s
52%
13:00
25°
1014.9 hPa
11%
17.8°
4
Windvlaag: 4.2 m/s
65%
14:00
25°
1014.9 hPa
12%
17.4°
4
Windvlaag: 4.9 m/s
65%
15:00
25°
1014.8 hPa
12%
17.3°
5
Windvlaag: 5.1 m/s
47%
16:00
25°
1015.0 hPa
13%
17.1°
4
Windvlaag: 6.1 m/s
61%
17:00
25°
1015.0 hPa
13%
18.0°
4
Windvlaag: 6.7 m/s
69%
18:00
25°
1015.0 hPa
12%
18.2°
3
Windvlaag: 5.2 m/s
65%
19:00
24°
1014.9 hPa
14%
18.2°
2
Windvlaag: 2.7 m/s
44%
20:00
23°
1014.9 hPa
14%
18.4°
2
Windvlaag: 3.7 m/s
75%
21:00
21°
1015.0 hPa
20%
17.7°
2
Windvlaag: 2.5 m/s
53%
22:00
20°
1015.5 hPa
71%
17.2°
2
Windvlaag: 3.4 m/s
38%
23:00
19°
1015.7 hPa
14%
17.0°
2
Windvlaag: 3.9 m/s
49%
 04:32     21:59    Daglengte: 17:27 Morgen
00:00
18°
1015.7 hPa
60%
17.0°
1
Windvlaag: 1.5 m/s
44%
01:00
18°
1015.3 hPa
15%
16.7°
2
Windvlaag: 1.8 m/s
25%
02:00
17°
1015.0 hPa
14%
16.5°
1
Windvlaag: 2 m/s
13%
03:00
17°
1014.9 hPa
14%
16.5°
2
Windvlaag: 2 m/s
12%
04:00
17°
1014.6 hPa
14%
15.9°
2
Windvlaag: 1.5 m/s
14%
05:00
16°
1014.6 hPa
14%
15.6°
1
Windvlaag: 0.3 m/s
35%
06:00
17°
1014.3 hPa
14%
16.1°
2
Windvlaag: 1.2 m/s
8%
07:00
19°
1014.1 hPa
14%
16.6°
2
Windvlaag: 1.7 m/s
9%
08:00
20°
1014.2 hPa
14%
16.7°
3
Windvlaag: 3.1 m/s
12%
09:00
22°
1013.9 hPa
14%
17.0°
4
Windvlaag: 4 m/s
28%
10:00
23°
1013.9 hPa
14%
17.4°
4
Windvlaag: 4.7 m/s
9%
11:00
24°
1013.7 hPa
14%
17.9°
4
Windvlaag: 4.1 m/s
9%
12:00
25°
1013.5 hPa
14%
18.2°
5
Windvlaag: 5.2 m/s
15%
13:00
25°
1013.2 hPa
14%
18.8°
5
Windvlaag: 5.4 m/s
25%
14:00
26°
1013.0 hPa
14%
19.2°
5
Windvlaag: 6.1 m/s
12%
15:00
25°
1012.8 hPa
14%
18.5°
5
Windvlaag: 7.6 m/s
75%
16:00
25°
1012.8 hPa
14%
18.1°
5
Windvlaag: 7.4 m/s
86%
17:00
24°
1012.6 hPa
14%
16.6°
4
Windvlaag: 6.1 m/s
43%
18:00
24°
1012.7 hPa
19%
15.9°
5
Windvlaag: -0.1 m/s
60%
19:00
23°
1013.1 hPa
66%
15.5°
6
Windvlaag: -2.3 m/s
49%
20:00
21°
1014.0 hPa
64%
13.7°
7
Windvlaag: -2.4 m/s
78%
21:00
20°
1014.6 hPa 2.0 mm
82%
12.6°
7
Windvlaag: -2.7 m/s
86% warningclass
22:00
19°
1014.9 hPa 2.0 mm
82%
12.4°
6
Windvlaag: -4.6 m/s
86% warningclass
23:00
16°
1015.8 hPa 2.2 mm
100%
14.7°
5
Windvlaag: -5.6 m/s
100% warningclass
 04:33     21:59    Daglengte: 17:26 Dinsdag 28 Jun
00:00
16°
1016.3 hPa 0.9 mm
100%
14.3°
5
Windvlaag: -4.9 m/s
96%
01:00
15°
1016.8 hPa 0.7 mm
100%
13.8°
5
Windvlaag: -5 m/s
100%
02:00
15°
1017.0 hPa 1.7 mm
100%
13.4°
5
Windvlaag: -4.1 m/s
95%
03:00
15°
1016.9 hPa 3.4 mm
100%
12.6°
5
Windvlaag: -4.2 m/s
93%
04:00
14°
1017.0 hPa 1.6 mm
100%
13.1°
4
Windvlaag: -2.8 m/s
92%
05:00
14°
1017.8 hPa 0.9 mm
100%
12.9°
4
Windvlaag: -1.3 m/s
77%
06:00
15°
1017.9 hPa 0.8 mm
100%
11.9°
4
Windvlaag: -0.5 m/s
56%
07:00
15°
1018.5 hPa
25%
12.4°
4
Windvlaag: 0.9 m/s
73%
08:00
16°
1018.5 hPa
22%
11.7°
4
Windvlaag: 6.7 m/s
50%
09:00
17°
1018.7 hPa
21%
10.6°
5
Windvlaag: 7.8 m/s
11%
10:00
18°
1019.2 hPa
21%
10.0°
5
Windvlaag: 7 m/s
4%
11:00
19°
1019.6 hPa
21%
9.7°
5
Windvlaag: 6.9 m/s
0%
12:00
20°
1019.9 hPa
21%
9.7°
5
Windvlaag: 5.9 m/s
0%
13:00
20°
1020.1 hPa
21%
9.6°
5
Windvlaag: 5.8 m/s
3%
14:00
21°
1020.1 hPa
21%
9.7°
4
Windvlaag: 5 m/s
7%
15:00
21°
1020.0 hPa
21%
9.4°
4
Windvlaag: 4.2 m/s
2%
16:00
21°
1020.1 hPa
21%
8.6°
3
Windvlaag: 3.7 m/s
1%
17:00
21°
1020.2 hPa
21%
8.6°
3
Windvlaag: 3.9 m/s
3%
18:00
21°
1019.9 hPa
21%
8.8°
3
Windvlaag: 3.6 m/s
3%
19:00
21°
1019.7 hPa
21%
9.5°
3
Windvlaag: 3.2 m/s
5%
20:00
20°
1019.8 hPa
21%
10.7°
2
Windvlaag: 3 m/s
2%
21:00
19°
1019.9 hPa
21%
12.5°
2
Windvlaag: 3.3 m/s
1%
22:00
17°
1020.2 hPa
21%
10.8°
2
Windvlaag: 4 m/s
22%
23:00
16°
1020.2 hPa
21%
10.5°
1
Windvlaag: 2.2 m/s
26%
 04:34     21:58    Daglengte: 17:24 Woensdag 29 Jun
00:00
15°
1020.4 hPa
21%
10.3°
1
Windvlaag: 1.5 m/s
26%
01:00
14°
1020.2 hPa
21%
10.3°
1
Windvlaag: 0.9 m/s
0%
02:00
14°
1020.0 hPa
21%
10.0°
1
Windvlaag: 1.2 m/s
1%
Temp/Neerslag /Baro Onweer/Dauwpunt
    Temp Baro Neerslag Dauwpunt Wind Bewolking  
 04:32     21:59    Daglengte: 17:27 Vandaag
05:00
17°
1013.8 hPa   16.5°
2
20%
08:00
19°
1014.3 hPa   16.6°
3
47%
11:00
22°
1014.6 hPa   17.0°
3
53%
14:00
25°
1014.9 hPa   17.4°
4
65%
17:00
25°
1015.0 hPa   18.0°
4
69%
20:00
23°
1014.9 hPa   18.4°
2
75%
23:00
19°
1015.7 hPa   17.0°
2
49%
 04:32     21:59    Daglengte: 17:27 Morgen
02:00
17°
1015.0 hPa   16.5°
1
13%
05:00
16°
1014.6 hPa   15.6°
1
35%
08:00
20°
1014.2 hPa   16.7°
3
12%
11:00
24°
1013.7 hPa   17.9°
4
9%
14:00
26°
1013.0 hPa   19.2°
5
12%
17:00
24°
1012.6 hPa   16.6°
4
43%
20:00
21°
1014.0 hPa   13.7°
7
78%
23:00
16°
1015.8 hPa 6.3 mm 14.7°
5
100% warningclass
 04:33     21:59    Daglengte: 17:26 Dinsdag 28 Jun
02:00
15°
1017.0 hPa 3.2 mm 13.4°
5
95%
05:00
14°
1017.8 hPa 5.9 mm 12.9°
4
77%
08:00
16°
1018.5 hPa 0.8 mm 11.7°
4
50%
11:00
19°
1019.6 hPa   9.7°
5
0%
14:00
21°
1020.1 hPa   9.7°
4
7%
17:00
21°
1020.2 hPa   8.6°
3
3%
20:00
20°
1019.8 hPa   10.7°
2
2%
23:00
16°
1020.2 hPa   10.5°
1
26%
 04:34     21:58    Daglengte: 17:24 Woensdag 29 Jun
02:00
14°
1020.0 hPa   10.0°
1
1%
05:00
13°
1021.1 hPa 18.8 mm 10.7°
1
0%
08:00
18°
1021.1 hPa 18.8 mm 11.6°
2
0%
11:00
21°
1021.0 hPa 18.8 mm 10.0°
2
0%
14:00
22°
1020.2 hPa 18.8 mm 9.7°
2
0%
17:00
23°
1019.1 hPa 18.8 mm 10.3°
2
0%
20:00
20°
1018.4 hPa 18.8 mm 13.4°
2
0%
23:00
15°
1018.9 hPa 18.8 mm 12.3°
2
0%
 04:34     21:58    Daglengte: 17:24 Donderdag 30 Jun
02:00
15°
1018.2 hPa 18.8 mm 12.7°
3
0%
05:00
14°
1017.6 hPa 18.8 mm 12.1°
3
0%
08:00
16°
1017.1 hPa 18.8 mm 12.0°
3
1%
11:00
19°
1016.5 hPa 18.8 mm 11.6°
5
1%
14:00
19°
1015.8 hPa 18.8 mm 13.9°
4
0%
17:00
20°
1014.6 hPa 18.8 mm 14.8°
3
1%
20:00
18°
1013.8 hPa 18.8 mm 15.1°
3
1%
23:00
17°
1012.9 hPa 18.8 mm 15.3°
2
1%
 04:35     21:58    Daglengte: 17:23 Vrijdag 01 Jul
02:00
17°
1012.3 hPa 18.8 mm 15.9°
1
1%
05:00
17°
1011.2 hPa 18.8 mm 15.9°
2
1%
08:00
20°
1011.1 hPa 18.8 mm 16.4°
3
1%
11:00
22°
1010.4 hPa 18.8 mm 15.8°
3
1%
14:00
20°
1011.1 hPa 21.2 mm 18.3°
3
1%
17:00
19°
1011.6 hPa 24.2 mm 18.4°
3
1%
20:00
20°
1011.2 hPa 25.6 mm 19.0°
4
1%
23:00
16°
1014.2 hPa 26.0 mm 14.3°
6
1%
 04:36     21:57    Daglengte: 17:21 Zaterdag 02 Jul
02:00
14°
1014.8 hPa 26.0 mm 12.1°
5
1%
05:00
13°
1015.5 hPa 26.0 mm 11.3°
4
0%
08:00
17°
1016.9 hPa 26.0 mm 11.1°
5
0%
11:00
18°
1017.1 hPa 26.0 mm 10.6°
5
1%
14:00
18°
1018.0 hPa 26.0 mm 9.4°
4
1%
17:00
21°
1016.9 hPa 26.0 mm 9.7°
5
0%
20:00
18°
1016.9 hPa 26.2 mm 12.1°
4
0%
23:00
14°
1017.3 hPa 26.2 mm 11.5°
4
0%
 04:37     21:57    Daglengte: 17:20 Zondag 03 Jul
02:00
14°
1017.0 hPa 52.5 mm 10.7°
4
1%
08:00
17°
1015.7 hPa 52.6 mm 12.6°
7
1%
14:00
20°
1014.6 hPa 54.1 mm 14.4°
9
0%
20:00
18°
1013.4 hPa 57.5 mm 12.0°
6
1%
 04:38     21:56    Daglengte: 17:18 Maandag 04 Jul
02:00
12°
1012.8 hPa 57.8 mm 10.4°
4
0%
08:00
15°
1010.7 hPa 58.4 mm 12.2°
6
1%
14:00
18°
1009.3 hPa 61.8 mm 12.6°
9
1%
20:00
16°
1011.2 hPa 64.5 mm 10.2°
9
0%
 04:39     21:55    Daglengte: 17:16 Dinsdag 05 Jul
02:00
14°
1012.4 hPa 65.0 mm 9.7°
9
1%
08:00
15°
1013.2 hPa 65.6 mm 10.0°
9
1%
14:00
18°
1015.3 hPa 65.8 mm 10.8°
9
1%
20:00
17°
1015.8 hPa 66.2 mm 12.5°
7
1%
 04:40     21:54    Daglengte: 17:14 Woensdag 06 Jul
02:00
14°
1016.6 hPa 0.2 mm 11.3°
3
50%
08:00
16°
1016.6 hPa 0.3 mm 12.2°
3
59%
14:00
20°
1016.8 hPa 0.4 mm 12.6°
4
57%
20:00
19°
1016.0 hPa 0.4 mm 13.0°
3
57%
 04:41     21:54    Daglengte: 17:13 Donderdag 07 Jul
02:00
15°
1015.9 hPa 0.2 mm 12.1°
2
47%
08:00
16°
1015.5 hPa 0.3 mm 12.6°
2
50%
14:00
20°
1015.6 hPa 0.6 mm 13.0°
3
56%
20:00
19°
1015.0 hPa 0.6 mm 13.4°
2
50%
 04:42     21:53    Daglengte: 17:11 Vrijdag 08 Jul
02:00
14°
1015.2 hPa 0.5 mm 12.0°
2
51%
08:00
16°
1014.9 hPa 0.9 mm 12.7°
3
63%
14:00
20°
1014.9 hPa 0.8 mm 12.9°
3
68%
20:00
19°
1014.4 hPa 0.6 mm 13.2°
3
51%
 04:43     21:52    Daglengte: 17:09 Zaterdag 09 Jul
02:00
14°
1014.7 hPa 0.6 mm 11.6°
3
47%
08:00
16°
1014.6 hPa 0.3 mm 12.1°
3
48%
14:00
20°
1014.1 hPa 0.7 mm 12.7°
4
50%
20:00
19°
1013.3 hPa 0.9 mm 13.0°
3
51%
 04:45     21:51    Daglengte: 17:06 Zondag 10 Jul
02:00
14°
1013.1 hPa 0.3 mm 11.8°
2
40%
08:00
17°
1012.3 hPa 0.3 mm 12.6°
3
56%
14:00
20°
1012.2 hPa 1.0 mm 12.5°
4
61%
20:00
18°
1011.9 hPa 1.0 mm 12.3°
3
52%
 04:46     21:50    Daglengte: 17:04 Maandag 11 Jul
02:00
14°
1012.1 hPa 0.6 mm 11.3°
3
37%
  CAPE Lifted Index Hail Supercell Tornado SRH 3km CL BTM PRES CL TOP PRES Swiss DWD icon SMHI TS
 04:32     21:59    Daglengte: 17:27 Vandaag
04:00 0 J/kg -1.1 K 0 % 0 % 0 % 0 m²/s² 0 0 -0.74 2
05:00 0 J/kg -1.2 K 0 % 0 % 0 % 0 m²/s² 0 0 -0.48 2
06:00 0 J/kg -2.6 K 0 % 0 % 0 % 0 m²/s² 0 0 -1.64 3
07:00 0 J/kg -3.8 K 0 % 0 % 0 % 0 m²/s² 0 0 -2.99 3
08:00 0 J/kg -3.4 K 0 % 0 % 0 % 0 m²/s² 0 0 -2.86 3
09:00 219 J/kg -3.4 K 0 % 0 % 0 % 0 m²/s² 0 0 -2.86 3
10:00 590 J/kg -3.5 K 0 % 0 % 0 % 0 m²/s² 0 0 -3.02 3
11:00 860 J/kg -3.7 K 0 % 0 % 0 % 0 m²/s² 0 0 -2.8 3
12:00 1028 J/kg -4.2 K 0 % 0 % 0 % 0 m²/s² 0 0 -3.21 3
13:00 995 J/kg -4.1 K 0 % 0 % 0 % 0 m²/s² 0 0 -2.99 3
14:00 1031 J/kg -3.9 K 0 % 0 % 0 % 0 m²/s² 0 0 -2.19 3
15:00 898 J/kg -3.5 K 0 % 0 % 0 % 0 m²/s² 0 0 -1.85 3
16:00 588 J/kg -2.8 K 0 % 0 % 0 % 0 m²/s² 0 0 -1.81 3
17:00 200 J/kg -2.0 K 0 % 0 % 0 % 0 m²/s² 0 0 -1.19 3
18:00 346 J/kg -2.5 K 0 % 0 % 0 % 0 m²/s² 0 0 -2.32 3
19:00 400 J/kg -2.6 K 0 % 0 % 0 % 0 m²/s² 0 0 -1.55 3
20:00 122 J/kg -0.6 K 0 % 0 % 0 % 0 m²/s² 0 0 -0.48 3
21:00 0 J/kg -0.5 K 0 % 0 % 0 % 0 m²/s² 0 0 0.46 3
22:00 0 J/kg -1.1 K 0 % 0 % 0 % 0 m²/s² 0 0 -0.44 3
23:00 0 J/kg -1.8 K 0 % 0 % 0 % 0 m²/s² 0 0 -1.17 3
 04:32     21:59    Daglengte: 17:27 Morgen
00:00 2 J/kg -2.0 K 0 % 0 % 0 % 0 m²/s² 0 0 -1.13 3
01:00 1 J/kg -2.1 K 0 % 0 % 0 % 0 m²/s² 0 0 -1.14 3
02:00 0 J/kg -2.6 K 0 % 0 % 0 % 0 m²/s² 0 0 -1.64 1
03:00 0 J/kg -2.5 K 0 % 0 % 0 % 0 m²/s² 0 0 -1 1
04:00 0 J/kg -2.8 K 0 % 0 % 0 % 0 m²/s² 0 0 -1.63 0
05:00 0 J/kg -2.7 K 0 % 0 % 0 % 0 m²/s² 0 0 -1.5 3
06:00 0 J/kg -2.8 K 0 % 0 % 0 % 0 m²/s² 0 0 -1.6 0
07:00 0 J/kg -2.3 K 0 % 0 % 0 % 0 m²/s² 0 0 -0.8 0
08:00 21 J/kg -1.5 K 0 % 0 % 0 % 0 m²/s² 0 0 0.06 1
09:00 304 J/kg -1.5 K 0 % 0 % 0 % 0 m²/s² 0 0 0.18 3
10:00 515 J/kg -1.6 K 0 % 0 % 0 % 0 m²/s² 0 0 0.2 2
11:00 591 J/kg -2.1 K 0 % 0 % 0 % 0 m²/s² 0 0 -0.48 2
12:00 708 J/kg -2.8 K 0 % 0 % 0 % 0 m²/s² 0 0 -1.12 1
13:00 588 J/kg -2.2 K 0 % 0 % 0 % 0 m²/s² 0 0 -0.22 3
14:00 712 J/kg -2.8 K 0 % 0 % 0 % 0 m²/s² 0 0 -1.18 1
15:00 471 J/kg -2.8 K 0 % 0 % 0 % 0 m²/s² 0 0 -2.62 3
16:00 854 J/kg -2.8 K 0 % 0 % 0 % 0 m²/s² 0 0 -1.99 3
17:00 1314 J/kg -3.5 K 0 % 0 % 0 % 0 m²/s² 0 0 -1.01 3
18:00 1255 J/kg -3.5 K 0 % 0 % 0 % 0 m²/s² 0 0 -0.44 3
19:00 1017 J/kg -3.2 K 0 % 0 % 0 % 0 m²/s² 0 0 -0.23 3
20:00 0 J/kg -0.9 K 0 % 0 % 0 % 0 m²/s² 0 0 1.17 3
21:00 0 J/kg 0.9 K 0 % 0 % 0 % 0 m²/s² 0 0 2.46 95
22:00 1 J/kg 1.8 K 0 % 0 % 0 % 0 m²/s² 0 0 2.97 95
23:00 2 J/kg 2.8 K 0 % 0 % 0 % 0 m²/s² 0 0 3.58 95
 04:33     21:59    Daglengte: 17:26 Dinsdag 28 Jun
00:00 1 J/kg 3.4 K 0 % 0 % 0 % 0 m²/s² 0 0 3.79 53
01:00 0 J/kg 5.6 K 0 % 0 % 0 % 0 m²/s² 0 0 5.6 80
02:00 0 J/kg 5.7 K 0 % 0 % 0 % 0 m²/s² 0 0 5.73 80
03:00 0 J/kg 5.1 K 0 % 0 % 0 % 0 m²/s² 0 0 5.1 63
04:00 0 J/kg 6.5 K 0 % 0 % 0 % 0 m²/s² 0 0 7.25 80
05:00 0 J/kg 7.3 K 0 % 0 % 0 % 0 m²/s² 0 0 8.71 80
06:00 0 J/kg 8.5 K 0 % 0 % 0 % 0 m²/s² 0 0 11.89 61
07:00 0 J/kg 8.2 K 0 % 0 % 0 % 0 m²/s² 0 0 12.55 3
08:00 0 J/kg 8.1 K 0 % 0 % 0 % 0 m²/s² 0 0 12.42 3
09:00 0 J/kg 8.4 K 0 % 0 % 0 % 0 m²/s² 0 0 13.41 1
10:00 0 J/kg 7.7 K 0 % 0 % 0 % 0 m²/s² 0 0 13.94 1
11:00 0 J/kg 7.8 K 0 % 0 % 0 % 0 m²/s² 0 0 15.39 0
12:00 0 J/kg 8.5 K 0 % 0 % 0 % 0 m²/s² 0 0 17.02 0
13:00 1 J/kg 8.6 K 0 % 0 % 0 % 0 m²/s² 0 0 17.51 0
14:00 18 J/kg 8.8 K 0 % 0 % 0 % 0 m²/s² 0 0 17.35 0
15:00 15 J/kg 9.0 K 0 % 0 % 0 % 0 m²/s² 0 0 17.61 0
16:00 7 J/kg 9.4 K 0 % 0 % 0 % 0 m²/s² 0 0 18.82 0
17:00 10 J/kg 9.1 K 0 % 0 % 0 % 0 m²/s² 0 0 19.03 0
18:00 6 J/kg 8.6 K 0 % 0 % 0 % 0 m²/s² 0 0 18.14 0
19:00 18 J/kg 7.9 K 0 % 0 % 0 % 0 m²/s² 0 0 17.47 0
20:00 19 J/kg 7.4 K 0 % 0 % 0 % 0 m²/s² 0 0 17.03 0
21:00 24 J/kg 7.2 K 0 % 0 % 0 % 0 m²/s² 0 0 16.05 0
22:00 5 J/kg 7.4 K 0 % 0 % 0 % 0 m²/s² 0 0 15.59 3
23:00 0 J/kg 8.0 K 0 % 0 % 0 % 0 m²/s² 0 0 15.62 3
 04:34     21:58    Daglengte: 17:24 Woensdag 29 Jun
00:00 0 J/kg 8.2 K 0 % 0 % 0 % 0 m²/s² 0 0 15.34 3
01:00 0 J/kg 8.6 K 0 % 0 % 0 % 0 m²/s² 0 0 15.11 0
02:00 0 J/kg 8.7 K 0 % 0 % 0 % 0 m²/s² 0 0 14.52 0
Temp Baro Wind Neerslag
  EWN Forecast EWN WRFDA DWD ICON FMI HIRLAM MET Norway GFS
 04:32     21:59    Daglengte: 17:27 Vandaag
05:00 17.2° 1013.8 hPa 1.6 m/s 0.0 mm 14.9° 1013.2 hPa 2.6 m/s 0.1 mm 17.5° 1014.1 hPa 1.5 m/s -2.0 mm 16.5° 1013.7 hPa 1.7 m/s 0.0 mm 16.2° 1013.6 hPa 2.3 m/s
08:00 19.2° 1014.3 hPa 2.5 m/s 0.0 mm 20.9° 1013.8 hPa 2.3 m/s 0.1 mm 19.9° 1014.8 hPa 2.5 m/s 0.0 mm 18.9° 1013.9 hPa 3.2 m/s 0.0 mm 18.9° 1014.1 hPa 3.4 m/s
11:00 22.0° 1014.6 hPa 3.1 m/s 0.0 mm 24.9° 1014.1 hPa 4.0 m/s 0.1 mm 21.7° 1015.3 hPa 3.2 m/s 0.0 mm 22.3° 1014.6 hPa 3.9 m/s 0.0 mm 23.2° 1014.7 hPa 4.5 m/s
14:00 24.7° 1014.9 hPa 4.3 m/s 0.0 mm 25.9° 1014.4 hPa 5.2 m/s 0.1 mm 24.6° 1015.2 hPa 3.6 m/s 0.0 mm 25.8° 1014.9 hPa 4.3 m/s 0.0 mm 24.2° 1014.8 hPa 4.7 m/s
17:00 24.9° 1015.0 hPa 3.5 m/s 0.0 mm 25.8° 1013.7 hPa 5.6 m/s 0.1 mm 24.2° 1015.3 hPa 2.9 m/s 0.0 mm 24.9° 1015.0 hPa 4.8 m/s 0.0 mm 22.6° 1015.3 hPa 2.9 m/s
20:00 22.7° 1014.9 hPa 2.0 m/s 0.0 mm 21.6° 1014.6 hPa 2.7 m/s 1.5 mm 21.5° 1015.1 hPa 2.0 m/s 0.0 mm 22.9° 1015.0 hPa 2.9 m/s 0.0 mm 20.7° 1016.1 hPa 2.1 m/s
23:00 18.8° 1015.7 hPa 1.6 m/s 0.0 mm 17.6° 1014.2 hPa 2.7 m/s 5.5 mm 18.0° 1016.0 hPa 1.2 m/s 0.1 mm 18.9° 1016.1 hPa 1.4 m/s 0.0 mm 17.8° 1017.0 hPa 0.8 m/s
 04:32     21:59    Daglengte: 17:27 Morgen
02:00 17.2° 1015.0 hPa 1.5 m/s 0.0 mm 16.2° 1014.0 hPa 1.3 m/s 5.5 mm 16.9° 1015.0 hPa 1.1 m/s 0.0 mm 17.2° 1015.8 hPa 1.3 m/s 0.0 mm 17.1° 1016.1 hPa 2.3 m/s
05:00 16.3° 1014.6 hPa 1.3 m/s 0.0 mm 16.1° 1013.4 hPa 2.4 m/s 5.5 mm 16.2° 1014.9 hPa 1.2 m/s 0.0 mm 16.0° 1015.2 hPa 1.3 m/s 0.0 mm 17.2° 1015.4 hPa 2.6 m/s
08:00 20.4° 1014.2 hPa 3.1 m/s 0.0 mm 21.7° 1012.5 hPa 3.7 m/s 5.5 mm 19.9° 1014.5 hPa 2.8 m/s 0.0 mm 20.2° 1014.8 hPa 4.2 m/s 0.0 mm 20.3° 1014.7 hPa 2.7 m/s
11:00 24.2° 1013.7 hPa 4.3 m/s 0.0 mm 25.6° 1011.6 hPa 5.8 m/s 5.5 mm 24.1° 1014.4 hPa 4.3 m/s 0.0 mm 23.9° 1013.9 hPa 4.4 m/s 0.0 mm 24.1° 1014.3 hPa 4.8 m/s
14:00 25.7° 1013.0 hPa 5.0 m/s 0.0 mm 26.9° 1010.4 hPa 7.4 m/s 5.5 mm 25.7° 1013.9 hPa 4.6 m/s 0.0 mm 24.1° 1013.2 hPa 5.3 m/s 0.0 mm 24.8° 1013.6 hPa 5.3 m/s
17:00 24.1° 1012.6 hPa 4.1 m/s 0.0 mm 26.5° 1010.4 hPa 4.5 m/s 5.7 mm 23.8° 1013.4 hPa 3.8 m/s 0.0 mm 25.6° 1011.8 hPa 6.9 m/s 0.0 mm 25.2° 1013.3 hPa 4.3 m/s
20:00 21.0° 1014.0 hPa 6.7 m/s 0.0 mm 19.7° 1013.2 hPa 6.9 m/s 5.7 mm 21.1° 1014.6 hPa 4.4 m/s 0.1 mm 23.7° 1010.9 hPa 8.1 m/s 0.0 mm 20.5° 1014.6 hPa 3.1 m/s
23:00 16.4° 1015.8 hPa 5.0 m/s 6.3 mm 15.7° 1014.9 hPa 5.1 m/s 5.7 mm 18.2° 1015.7 hPa 3.5 m/s 9.8 mm 17.6° 1016.0 hPa 2.5 m/s
 04:33     21:59    Daglengte: 17:26 Dinsdag 28 Jun
02:00 15.0° 1017.0 hPa 5.3 m/s 3.2 mm 14.3° 1017.1 hPa 5.3 m/s 6.0 mm 16.1° 1016.1 hPa 4.8 m/s 3.8 mm 16.4° 1016.5 hPa 3.7 m/s
05:00 14.3° 1017.8 hPa 4.1 m/s 5.9 mm 12.5° 1017.7 hPa 3.3 m/s 6.3 mm 14.6° 1017.0 hPa 4.9 m/s 5.7 mm 15.2° 1018.0 hPa 3.7 m/s
08:00 15.9° 1018.5 hPa 3.7 m/s 0.8 mm 16.2° 1019.3 hPa 3.7 m/s 6.3 mm 15.8° 1018.3 hPa 3.8 m/s 0.2 mm 15.2° 1019.6 hPa 4.0 m/s
11:00 18.9° 1019.6 hPa 4.6 m/s 0.0 mm 19.5° 1019.5 hPa 5.1 m/s 6.3 mm 18.8° 1019.6 hPa 4.5 m/s 0.0 mm 18.5° 1020.7 hPa 3.9 m/s
14:00 20.8° 1020.1 hPa 4.1 m/s 0.0 mm 21.0° 1020.3 hPa 4.3 m/s 6.3 mm 20.8° 1020.1 hPa 4.1 m/s 0.0 mm 20.0° 1021.1 hPa 3.6 m/s
17:00 21.4° 1020.2 hPa 3.3 m/s 0.0 mm 21.7° 1020.1 hPa 3.6 m/s 6.3 mm 21.3° 1020.2 hPa 3.2 m/s 0.0 mm 20.5° 1021.0 hPa 2.3 m/s
20:00 20.2° 1019.8 hPa 2.2 m/s 0.0 mm 20.6° 1019.8 hPa 2.9 m/s 6.3 mm 20.2° 1019.8 hPa 2.0 m/s 0.0 mm 19.2° 1021.0 hPa 1.1 m/s
23:00 15.7° 1020.2 hPa 1.3 m/s 0.0 mm 13.9° 1020.7 hPa 2.2 m/s 6.3 mm 16.2° 1020.1 hPa 1.1 m/s 0.0 mm 14.4° 1021.7 hPa 0.5 m/s
 04:34     21:58    Daglengte: 17:24 Woensdag 29 Jun
02:00 14.2° 1020.0 hPa 0.8 m/s 0.0 mm 12.3° 1020.9 hPa 1.1 m/s 6.3 mm 14.6° 1019.8 hPa 0.7 m/s 0.0 mm 13.7° 1021.5 hPa 1.8 m/s
05:00 13.2° 1021.1 hPa 1.5 m/s 18.8 mm 13.2° 1021.1 hPa 1.5 m/s 18.8 mm
08:00 17.7° 1021.1 hPa 1.8 m/s 18.8 mm 17.7° 1021.1 hPa 1.8 m/s 18.8 mm
11:00 20.8° 1021.0 hPa 1.8 m/s 18.8 mm 20.8° 1021.0 hPa 1.8 m/s 18.8 mm
14:00 22.3° 1020.2 hPa 2.3 m/s 18.8 mm 22.3° 1020.2 hPa 2.3 m/s 18.8 mm
17:00 22.9° 1019.1 hPa 1.8 m/s 18.8 mm 22.9° 1019.1 hPa 1.8 m/s 18.8 mm
20:00 19.9° 1018.4 hPa 2.4 m/s 18.8 mm 19.9° 1018.4 hPa 2.4 m/s 18.8 mm
23:00 15.1° 1018.9 hPa 1.8 m/s 18.8 mm 15.1° 1018.9 hPa 1.8 m/s 18.8 mm
 04:34     21:58    Daglengte: 17:24 Donderdag 30 Jun
02:00 14.5° 1018.2 hPa 2.7 m/s 18.8 mm 14.5° 1018.2 hPa 2.7 m/s 18.8 mm
05:00 14.2° 1017.6 hPa 2.6 m/s 18.8 mm 14.2° 1017.6 hPa 2.6 m/s 18.8 mm
08:00 16.4° 1017.1 hPa 3.4 m/s 18.8 mm 16.4° 1017.1 hPa 3.4 m/s 18.8 mm
11:00 19.4° 1016.5 hPa 4.9 m/s 18.8 mm 19.4° 1016.5 hPa 4.9 m/s 18.8 mm
14:00 19.4° 1015.8 hPa 3.8 m/s 18.8 mm 19.4° 1015.8 hPa 3.8 m/s 18.8 mm
17:00 19.9° 1014.6 hPa 3.1 m/s 18.8 mm 19.9° 1014.6 hPa 3.1 m/s 18.8 mm
20:00 18.0° 1013.8 hPa 2.5 m/s 18.8 mm 18.0° 1013.8 hPa 2.5 m/s 18.8 mm
23:00 16.8° 1012.9 hPa 1.8 m/s 18.8 mm 16.8° 1012.9 hPa 1.8 m/s 18.8 mm
 04:35     21:58    Daglengte: 17:23 Vrijdag 01 Jul
02:00 16.9° 1012.3 hPa 0.6 m/s 18.8 mm 16.9° 1012.3 hPa 0.6 m/s 18.8 mm
05:00 17.1° 1011.2 hPa 2.1 m/s 18.8 mm 17.1° 1011.2 hPa 2.1 m/s 18.8 mm
08:00 19.7° 1011.1 hPa 2.8 m/s 18.8 mm 19.7° 1011.1 hPa 2.8 m/s 18.8 mm
11:00 22.3° 1010.4 hPa 2.9 m/s 18.8 mm 22.3° 1010.4 hPa 2.9 m/s 18.8 mm
14:00 20.0° 1011.1 hPa 3.2 m/s 21.2 mm 20.0° 1011.1 hPa 3.2 m/s 21.2 mm
17:00 19.3° 1011.6 hPa 3.0 m/s 24.2 mm 19.3° 1011.6 hPa 3.0 m/s 24.2 mm
20:00 20.0° 1011.2 hPa 3.7 m/s 25.6 mm 20.0° 1011.2 hPa 3.7 m/s 25.6 mm
23:00 16.3° 1014.2 hPa 5.9 m/s 26.0 mm 16.3° 1014.2 hPa 5.9 m/s 26.0 mm
 04:36     21:57    Daglengte: 17:21 Zaterdag 02 Jul
02:00 14.1° 1014.8 hPa 4.6 m/s 26.0 mm 14.1° 1014.8 hPa 4.6 m/s 26.0 mm
05:00 12.8° 1015.5 hPa 3.6 m/s 26.0 mm 12.8° 1015.5 hPa 3.6 m/s 26.0 mm
08:00 16.6° 1016.9 hPa 4.8 m/s 26.0 mm 16.6° 1016.9 hPa 4.8 m/s 26.0 mm
11:00 18.4° 1017.1 hPa 5.3 m/s 26.0 mm 18.4° 1017.1 hPa 5.3 m/s 26.0 mm
14:00 18.3° 1018.0 hPa 4.3 m/s 26.0 mm 18.3° 1018.0 hPa 4.3 m/s 26.0 mm
17:00 20.8° 1016.9 hPa 4.9 m/s 26.0 mm 20.8° 1016.9 hPa 4.9 m/s 26.0 mm
20:00 18.5° 1016.9 hPa 4.0 m/s 26.2 mm 18.5° 1016.9 hPa 4.0 m/s 26.2 mm
23:00 13.9° 1017.3 hPa 3.6 m/s 26.2 mm 13.9° 1017.3 hPa 3.6 m/s 26.2 mm
 04:37     21:57    Daglengte: 17:20 Zondag 03 Jul
02:00 14.1° 1017.0 hPa 3.6 m/s 26.2 mm 14.1° 1017.0 hPa 3.6 m/s 26.2 mm
08:00 17.2° 1015.7 hPa 6.6 m/s 26.4 mm 17.2° 1015.7 hPa 6.6 m/s 26.4 mm
14:00 19.9° 1014.6 hPa 8.5 m/s 27.7 mm 19.9° 1014.6 hPa 8.5 m/s 27.7 mm
20:00 17.7° 1013.4 hPa 5.7 m/s 28.9 mm 17.7° 1013.4 hPa 5.7 m/s 28.9 mm
 04:38     21:56    Daglengte: 17:18 Maandag 04 Jul
02:00 12.0° 1012.8 hPa 4.1 m/s 28.9 mm 12.0° 1012.8 hPa 4.1 m/s 28.9 mm
08:00 14.8° 1010.7 hPa 6.3 m/s 29.5 mm 14.8° 1010.7 hPa 6.3 m/s 29.5 mm
14:00 17.8° 1009.3 hPa 9.2 m/s 31.5 mm 17.8° 1009.3 hPa 9.2 m/s 31.5 mm
20:00 16.2° 1011.2 hPa 8.7 m/s 32.3 mm 16.2° 1011.2 hPa 8.7 m/s 32.3 mm
 04:39     21:55    Daglengte: 17:16 Dinsdag 05 Jul
02:00 14.4° 1012.4 hPa 8.8 m/s 32.5 mm 14.4° 1012.4 hPa 8.8 m/s 32.5 mm
08:00 14.9° 1013.2 hPa 8.9 m/s 32.9 mm 14.9° 1013.2 hPa 8.9 m/s 32.9 mm
14:00 17.8° 1015.3 hPa 9.1 m/s 32.9 mm 17.8° 1015.3 hPa 9.1 m/s 32.9 mm
20:00 17.5° 1015.8 hPa 7.4 m/s 33.2 mm 17.5° 1015.8 hPa 7.4 m/s 33.2 mm
 04:40     21:54    Daglengte: 17:14 Woensdag 06 Jul
02:00 14.0° 1016.6 hPa 2.9 m/s 0.2 mm
08:00 16.2° 1016.6 hPa 3.1 m/s 0.3 mm
14:00 20.3° 1016.8 hPa 3.6 m/s 0.4 mm
20:00 18.7° 1016.0 hPa 2.7 m/s 0.4 mm
 04:41     21:54    Daglengte: 17:13 Donderdag 07 Jul
02:00 14.5° 1015.9 hPa 2.0 m/s 0.2 mm
08:00 16.4° 1015.5 hPa 1.8 m/s 0.3 mm
14:00 20.2° 1015.6 hPa 2.6 m/s 0.6 mm
20:00 18.7° 1015.0 hPa 2.0 m/s 0.6 mm
 04:42     21:53    Daglengte: 17:11 Vrijdag 08 Jul
02:00 14.3° 1015.2 hPa 1.6 m/s 0.5 mm
08:00 16.3° 1014.9 hPa 2.6 m/s 0.9 mm
14:00 20.1° 1014.9 hPa 3.4 m/s 0.8 mm
20:00 18.7° 1014.4 hPa 2.8 m/s 0.6 mm
 04:43     21:52    Daglengte: 17:09 Zaterdag 09 Jul
02:00 14.1° 1014.7 hPa 2.6 m/s 0.6 mm
08:00 16.5° 1014.6 hPa 2.8 m/s 0.3 mm
14:00 20.4° 1014.1 hPa 4.2 m/s 0.7 mm
20:00 18.7° 1013.3 hPa 2.6 m/s 0.9 mm
 04:45     21:51    Daglengte: 17:06 Zondag 10 Jul
02:00 14.5° 1013.1 hPa 1.8 m/s 0.3 mm
08:00 16.6° 1012.3 hPa 2.6 m/s 0.3 mm
14:00 19.9° 1012.2 hPa 3.5 m/s 1.0 mm
20:00 18.4° 1011.9 hPa 3.0 m/s 1.0 mm
 04:46     21:50    Daglengte: 17:04 Maandag 11 Jul
02:00 14.4° 1012.1 hPa 3.1 m/s 0.6 mm
FMI Hirlam - 7.5 km EWN WRFDA - 12 km DWD ICON - 7 km GFS - 25 km Basiskaart






























































Updatetijd (Europe/Amsterdam) Resolutie Lengte Stap
FMI Hirlam 01:45, 07:45, 13:45, 19:45 7.5 km 49h 1h
EWN WRFDA 22:30, 04:30, 10:30, 16:30 12 km 73h 1h
DWD ICON 23:45, 05:45, 11:45, 17:45 7 km 75h 1h
GFS 02:15, 08:15, 14:15, 20:15 25 km 237h 3h
30+ mm
25-30 mm
20-25 mm
15-20 mm
10-15 mm
6-10 mm
4-6 mm
2-4 mm
1-2 mm
0.5-1 mm
0.2-0.5 mm
0.1-0.2 mm
30+ mm
25-30 mm
20-25 mm
15-20 mm
10-15 mm
6-10 mm
4-6 mm
2-4 mm
1-2 mm
0.5-1 mm
0.2-0.5 mm
0.1-0.2 mm
Sneeuwval
Natte sneeuw
Hagel
Vorst
30+ mm
25-30 mm
20-25 mm
15-20 mm
10-15 mm
6-10 mm
4-6 mm
2-4 mm
1-2 mm
0.5-1 mm
0.2-0.5 mm
0.1-0.2 mm
Sneeuwval
Natte sneeuw
Hagel
Vorst
Onweer
50 mm
40 mm
30 mm
26 mm
22 mm
18 mm
14 mm
10 mm
9 mm
8 mm
7 mm
6 mm
5 mm
4.5 mm
4 mm
3.5 mm
3 mm
2.5 mm
2 mm
1.5 mm
1 mm
0.8 mm
0.6 mm
0.4 mm
0.2 mm
0.05 mm
35°
30°
25°
20°
15°
10°
-5°
-10°
-15°
-20°
-25°
-30°
-35°
33> m/s
29 m/s
25 m/s
21 m/s
17 m/s
14 m/s
11 m/s
8 m/s
5 m/s
3 m/s
0 m/s
2600 J/kg
2400 J/kg
2200 J/kg
2000 J/kg
1800 J/kg
1600 J/kg
1400 J/kg
1200 J/kg
1000 J/kg
800 J/kg
600 J/kg
400 J/kg
200 J/kg
70 dBZ
65 dBZ
60 dBZ
55 dBZ
50 dBZ
45 dBZ
40 dBZ
35 dBZ
30 dBZ
25 dBZ
20 dBZ
15 dBZ
10 dBZ
5 dBZ
-1 K
-2 K
-3 K
-4 K
-5 K
-6 K
-7 K
-8 K
-9 K
950 m²/s²
900 m²/s²
850 m²/s²
800 m²/s²
750 m²/s²
700 m²/s²
650 m²/s²
600 m²/s²
550 m²/s²
500 m²/s²
450 m²/s²
400 m²/s²
350 m²/s²
300 m²/s²
250 m²/s²
200 m²/s²
150 m²/s²
100 m²/s²
46 m/s
44 m/s
42 m/s
40 m/s
38 m/s
36 m/s
34 m/s
32 m/s
30 m/s
28 m/s
26 m/s
24 m/s
22 m/s
20 m/s
16 m/s
12 m/s
8 m/s
4 m/s
30 m/s
28 m/s
26 m/s
24 m/s
22 m/s
20 m/s
18 m/s
16 m/s
14 m/s
12 m/s
10 m/s
8 m/s
6 m/s
4 m/s
2 m/s
3.0
2.8
2.6
2.4
2.2
2.0
1.8
1.6
1.4
1.2
1.0